Weather History for Vinton, IA

Change the Weather History Date:

Wednesday, March 12, 2014

  Actual Average Record
Temperature  
Mean Temperature 29 °F -  
Max Temperature 35 °F 43 °F 76 °F (1990)
Min Temperature 22 °F 26 °F 0 °F (1960)
Degree Days  
Heating Degree Days 36    
Moisture  
Dew Point 19 °F    
Average Humidity 65    
Maximum Humidity 85    
Minimum Humidity 52    
Precipitation  
Precipitation 0.00 in - - ()
Sea Level Pressure  
Sea Level Pressure 30.03 in    
Wind  
Wind Speed 14 mph (NNW)    
Max Wind Speed 23 mph    
Max Gust Speed 30 mph    
Visibility 10 miles    
Events      
Averages and records for this station are not official NWS values.
T = Trace of Precipitation, MM = Missing Value Source: NWS Daily Summary

Daily Weather History Graph

Daily Weather History Graph

Search for Another Location

Airport:

Trip Planner

Search our weather history database for the weather conditions in past years. The results will help you decide how hot, cold, wet, or windy it might be!

Date:

Astronomy

Mar. 12, 2014 Rise Set
Actual Time 7:25 AM CDT 7:11 PM CDT
Civil Twilight 6:57 AM CDT 7:39 PM CDT
Nautical Twilight 6:24 AM CDT 8:11 PM CDT
Astronomical Twilight 5:51 AM CDT 8:44 PM CDT
Moon 3:39 PM CDT (3/12) 5:00 AM CDT (3/12)
Length of Visible Light 12h 41m
Length of Day
11h 46m
Waxing Gibbous, 85% of the Moon is Illuminated
Mar 12
Waxing Gibbous
Mar 16
Full
Mar 23
Last Quarter
Mar 30
New
Apr 7
First Quarter

Hourly Weather History & Observations

Time (CDT) Temp. Windchill Dew Point Humidity Pressure Visibility Wind Dir Wind Speed Gust Speed Precip Events Conditions
12:15 AM 36.9 °F 28.7 °F 27.5 °F 69% 29.87 in 10.0 mi NNW 12.7 mph - N/A   Clear
12:35 AM 36.1 °F 27.7 °F 27.1 °F 70% 29.87 in 10.0 mi North 12.7 mph 19.6 mph N/A   Clear
12:55 AM 35.6 °F 25.9 °F 25.5 °F 67% 29.88 in 10.0 mi North 16.1 mph 25.3 mph N/A   Clear
1:15 AM 34.3 °F 23.9 °F 23.9 °F 66% 29.87 in 10.0 mi North 17.3 mph 25.3 mph N/A   Clear
1:35 AM 34.3 °F 23.5 °F 23.4 °F 64% 29.87 in 10.0 mi North 18.4 mph 25.3 mph N/A   Clear
1:55 AM 34.3 °F 23.9 °F 23.0 °F 63% 29.88 in 10.0 mi North 17.3 mph 27.6 mph N/A   Clear
2:15 AM 34.3 °F 22.9 °F 23.4 °F 64% 29.88 in 10.0 mi North 20.7 mph 26.5 mph N/A   Clear
2:35 AM 34.3 °F 23.9 °F 23.0 °F 63% 29.89 in 10.0 mi North 17.3 mph 27.6 mph N/A   Clear
2:55 AM 32.0 °F 20.8 °F 20.8 °F 63% 29.89 in 10.0 mi North 17.3 mph 25.3 mph N/A   Clear
3:15 AM 32.0 °F 20.8 °F 21.0 °F 64% 29.89 in 10.0 mi North 17.3 mph 25.3 mph N/A   Clear
3:35 AM 32.0 °F 20.5 °F 20.8 °F 63% 29.89 in 10.0 mi North 18.4 mph 25.3 mph N/A   Clear
3:55 AM 30.9 °F 19.1 °F 19.9 °F 64% 29.90 in 10.0 mi North 18.4 mph 27.6 mph N/A   Clear
4:15 AM 29.8 °F 18.0 °F 18.9 °F 64% 29.90 in 10.0 mi NNW 17.3 mph 25.3 mph N/A   Clear
4:35 AM 29.7 °F 18.2 °F 19.2 °F 65% 29.91 in 10.0 mi NNW 16.1 mph 24.2 mph N/A   Clear
4:55 AM 29.7 °F 17.4 °F 18.9 °F 64% 29.92 in 10.0 mi NNW 18.4 mph 26.5 mph N/A   Clear
5:15 AM 29.7 °F 17.1 °F 19.0 °F 65% 29.93 in 10.0 mi NNW 19.6 mph 26.5 mph N/A   Clear
5:35 AM 29.7 °F 17.8 °F 19.4 °F 66% 29.94 in 10.0 mi NNW 17.3 mph 25.3 mph N/A   Clear
5:55 AM 29.7 °F 18.2 °F 19.8 °F 67% 29.95 in 10.0 mi NNW 16.1 mph 21.9 mph N/A   Clear
6:15 AM 29.7 °F 17.4 °F 19.8 °F 67% 29.96 in 10.0 mi NNW 18.4 mph 27.6 mph N/A   Clear
6:35 AM 29.7 °F 17.4 °F 21.0 °F 70% 29.97 in 10.0 mi NNW 18.4 mph 25.3 mph N/A   Clear
6:55 AM 27.1 °F 14.5 °F 18.9 °F 71% 29.98 in 10.0 mi NNW 17.3 mph 25.3 mph N/A   Clear
7:15 AM 27.1 °F 14.5 °F 18.9 °F 71% 29.99 in 10.0 mi NNW 17.3 mph 27.6 mph N/A   Clear
7:35 AM 27.1 °F 14.5 °F 18.9 °F 71% 29.99 in 10.0 mi NNW 17.3 mph 25.3 mph N/A   Clear
7:55 AM 27.1 °F 14.9 °F 18.9 °F 71% 30.00 in 10.0 mi NNW 16.1 mph 21.9 mph N/A   Clear
8:15 AM 27.1 °F 14.9 °F 18.5 °F 70% 30.00 in 10.0 mi NNW 16.1 mph 25.3 mph N/A   Clear
8:35 AM 27.1 °F 16.4 °F 18.3 °F 69% 30.01 in 10.0 mi NNW 12.7 mph 24.2 mph N/A   Clear
8:55 AM 27.1 °F 15.4 °F 17.6 °F 67% 30.02 in 10.0 mi NNW 15.0 mph 23.0 mph N/A   Clear
9:15 AM 27.5 °F 15.9 °F 17.6 °F 66% 30.02 in 10.0 mi NNW 15.0 mph 25.3 mph N/A   Clear
9:35 AM 27.9 °F 13.7 °F 17.4 °F 65% 30.03 in 10.0 mi NNW 23.0 mph 29.9 mph N/A   Clear
9:55 AM 29.7 °F 16.7 °F 18.7 °F 64% 30.04 in 10.0 mi NNW 20.7 mph 26.5 mph N/A   Clear
10:15 AM 29.7 °F 17.4 °F 18.5 °F 63% 30.04 in 10.0 mi NNW 18.4 mph 27.6 mph N/A   Clear
10:35 AM 29.7 °F 18.2 °F 18.7 °F 64% 30.05 in 10.0 mi NNW 16.1 mph 26.5 mph N/A   Clear
10:55 AM 29.7 °F 18.2 °F 18.7 °F 64% 30.05 in 10.0 mi NNW 16.1 mph 25.3 mph N/A   Clear
11:15 AM 29.7 °F 17.4 °F 18.7 °F 64% 30.06 in 10.0 mi NNW 18.4 mph 25.3 mph N/A   Clear
11:35 AM 29.7 °F 18.2 °F 17.8 °F 61% 30.07 in 10.0 mi NNW 16.1 mph 27.6 mph N/A   Scattered Clouds
11:55 AM 29.7 °F 17.8 °F 17.2 °F 60% 30.06 in 10.0 mi North 17.3 mph 24.2 mph N/A   Clear
12:15 PM 29.7 °F 18.2 °F 17.4 °F 60% 30.06 in 10.0 mi NNW 16.1 mph 24.2 mph N/A   Clear
12:35 PM 29.7 °F 18.2 °F 17.1 °F 59% 30.07 in 10.0 mi NNW 16.1 mph 23.0 mph N/A   Clear
1:15 PM 30.2 °F 18.9 °F 17.8 °F 60% 30.07 in 10.0 mi NNW 16.1 mph 21.9 mph N/A   Scattered Clouds
1:35 PM 31.1 °F 20.5 °F 18.0 °F 58% 30.08 in 10.0 mi NNW 15.0 mph 23.0 mph N/A   Clear
1:55 PM 30.4 °F 20.0 °F 18.0 °F 60% 30.07 in 10.0 mi NNW 13.8 mph 21.9 mph N/A   Scattered Clouds
2:15 PM 29.8 °F 19.3 °F 17.6 °F 60% 30.07 in 10.0 mi NNW 13.8 mph 20.7 mph N/A   Scattered Clouds
2:35 PM 30.7 °F 20.9 °F 18.0 °F 59% 30.07 in 10.0 mi NNW 12.7 mph 19.6 mph N/A   Scattered Clouds
2:55 PM 32.0 °F 22.1 °F 18.7 °F 58% 30.07 in 10.0 mi NNW 13.8 mph 19.6 mph N/A   Scattered Clouds
3:15 PM 33.4 °F 24.8 °F 19.8 °F 57% 30.07 in 10.0 mi NNW 11.5 mph 19.6 mph N/A   Scattered Clouds
3:35 PM 34.3 °F 25.9 °F 19.6 °F 55% 30.08 in 10.0 mi NNW 11.5 mph 17.3 mph N/A   Mostly Cloudy
3:55 PM 31.1 °F 20.9 °F 17.1 °F 56% 30.08 in 10.0 mi NNW 13.8 mph - N/A   Scattered Clouds
4:15 PM 31.3 °F 21.6 °F 17.4 °F 57% 30.08 in 10.0 mi NNW 12.7 mph 18.4 mph N/A   Clear
4:35 PM 32.0 °F 22.5 °F 17.8 °F 56% 30.08 in 10.0 mi NNW 12.7 mph 16.1 mph N/A   Scattered Clouds
4:55 PM 30.9 °F 21.2 °F 16.9 °F 56% 30.08 in 10.0 mi North 12.7 mph 18.4 mph N/A   Clear
5:15 PM 29.8 °F 20.3 °F 16.2 °F 57% 30.09 in 10.0 mi North 11.5 mph - N/A   Clear
5:35 PM 29.7 °F 20.1 °F 16.2 °F 57% 30.09 in 10.0 mi North 11.5 mph - N/A   Clear
5:55 PM 30.9 °F 20.7 °F 16.2 °F 54% 30.09 in 10.0 mi North 13.8 mph 17.3 mph N/A   Clear
6:15 PM 29.8 °F 20.3 °F 14.0 °F 52% 30.09 in 10.0 mi NNW 11.5 mph - N/A   Clear
6:35 PM 29.7 °F 20.1 °F 15.6 °F 56% 30.10 in 10.0 mi NNW 11.5 mph - N/A   Clear
6:55 PM 29.7 °F 22.0 °F 16.2 °F 57% 30.10 in 10.0 mi North 8.1 mph - N/A   Clear
7:15 PM 28.6 °F 22.4 °F 17.1 °F 62% 30.10 in 10.0 mi NNW 5.8 mph - N/A   Clear
7:35 PM 27.1 °F 19.7 °F 16.2 °F 63% 30.11 in 10.0 mi NNW 6.9 mph - N/A   Clear
7:55 PM 27.1 °F 21.8 °F 16.7 °F 65% 30.11 in 10.0 mi NNW 4.6 mph - N/A   Clear
8:15 PM 27.1 °F 21.8 °F 17.2 °F 66% 30.12 in 10.0 mi NNW 4.6 mph - N/A   Clear
8:35 PM 25.7 °F 21.5 °F 17.2 °F 70% 30.12 in 10.0 mi North 3.5 mph - N/A   Clear
8:55 PM 25.0 °F 19.3 °F 16.9 °F 71% 30.12 in 10.0 mi North 4.6 mph - N/A   Clear
9:15 PM 24.6 °F 20.3 °F 17.6 °F 75% 30.13 in 10.0 mi North 3.5 mph - N/A   Clear
9:35 PM 24.6 °F - 18.1 °F 76% 30.12 in 10.0 mi Calm Calm - N/A   Scattered Clouds
9:55 PM 24.6 °F - 17.6 °F 75% 30.12 in 10.0 mi Calm Calm - N/A   Clear
10:15 PM 24.6 °F - 17.2 °F 74% 30.12 in 10.0 mi Calm Calm - N/A   Clear
10:35 PM 23.4 °F - 16.5 °F 75% 30.12 in 10.0 mi Calm Calm - N/A   Clear
10:55 PM 22.8 °F - 17.6 °F 80% 30.12 in 10.0 mi Calm Calm - N/A   Clear
11:15 PM 22.3 °F - 17.8 °F 83% 30.11 in 10.0 mi Calm Calm - N/A   Clear
11:35 PM 22.1 °F - 18.3 °F 85% 30.11 in 10.0 mi Calm Calm - N/A   Clear
11:55 PM 22.1 °F - 17.4 °F 82% 30.12 in 10.0 mi Calm Calm - N/A   Clear